Location: Charlottesville
(38.0290°N, 78.4770°W)
Time: 13:46:19
(UTC-04:00)

Tiangong 1 - Pass Details

Date: 09 October 2017
Orbit: 293 x 320 km, 42.8° (Epoch: 21 October)

Event Time Altitude Azimuth Distance (km) Brightness Sun altitude
Rises 19:08:06 0° 270° (W) 2,044 7.5 -5.5°
Reaches altitude 10° 19:10:11 10° 280° (W) 1,209 5.2 -5.9°
Maximum altitude 19:12:42 34° 349° (N) 536 1.9 -6.4°
Drops below altitude 10° 19:15:12 10° 58° (ENE) 1,195 3.0 -6.9°
Enters shadow 19:15:37 - 61° (ENE) 1,356 3.3 -6.9°
